Tracking 18840 objects as of 18-November-2017
HD Live streaming from Space Station
objects crossing your sky now

SCOUT A R/B

Track SCOUT A R/B now!
10-day predictions


NORAD ID: 2180
Int'l Code: 1966-041B
Perigee: 841.6 km
Apogee: 960.1 km
Inclination: 90.1 °
Period: 102.9 minutes
Semi major axis: 7271 km
RCS: 0.6901 m2 (medium)
Launch date: May 19, 1966
Source: United States (US)
Launch site: AIR FORCE WESTERN TEST RANGE (AFWTR)

Note: This is a ROCKET BODY
aabbcc
Your satellite tracking list
Your tracking list is empty




NASA's NSSDC Master Catalog

Two Line Element Set (TLE):
1 02180U 66041B   17322.22316351  .00000130  00000-0  78269-4 0  9996
2 02180  90.1492  18.7850 0081480 101.9078 259.1252 14.00028974625288
Source of the keplerian elements: AFSPC